SCP
0 0 0 0 0 0 0 0 0 0 0 0 0 0 0 0 0 0 0 0 0 0 0 0 0 0 0 0 0 0 0 0 0 0 0 0 0 0 0 0 0 0 0 0 0 0 0 0 0
0 0 0 0 0 0 0 0 0 0 0 0 0 0 0 0 0 0 0 0 0 0 0 0 0 0 0 0 0 0 0 0 0 0 0 0 0 0 0 0 0 0 0 0 0 0 0 0 0
0 0 0 0 0 0 0 0 0 0 0 0 0 0 0 0 0 0 0 0 0 0 0 0 0 0 0 0 0 0 0 0 0 0 0 0 0 0 0 0 0 0 0 0 0 0 0 0 0
0 0 0 0 0 0 0 0 0 0 0 0 0 0 0 0 0 0 0 0 0 0 0 0 0 0 1 0 0 0 0 0 0 0 0 0 0 0 0 0 0 0 0 0 0 0 0 0 0
0 0 0 0 0 0 0 0 0 0 0 0 0 0 0 0 0 0 0 0 0 0 0 0 0 0 1 0 0 0 0 0 0 0 0 0 0 0 0 0 0 0 0 0 0 0 0 0 0
0 0 0 0 0 0 0 0 0 0 0 0 0 0 0 0 0 0 0 0 0 0 0 0 0 0 0 0 0 0 0 0 0 0 0 0 0 0 0 0 0 0 0 0 0 0 0 0 0
0 0 0 0 0 0 0 0 0 0 0 0 0 0 0 0 0 0 0 0 0 0 0 0 0 0 0 0 0 0 0 0 0 0 0 0 0 0 0 0 0 0 0 0 0 0 0 0 0
0 0 0 0 0 0 0 0 0 0 0 0 0 0 0 0 0 0 0 0 0 0 0 0 0 0 0 0 0 0 0 0 0 0 0 0 0 0 0 0 0 0 0 0 0 0 0 0 0
0 0 0 0 0 0 0 0 0 0 0 0 0 0 0 0 0 0 0 0 0 0 0 0 0 0 0 0 0 0 0 0 0 0 0 0 0 0 0 0 0 0 0 0 0 0 0 0 0
0 0 0 0 0 0 0 0 0 0 0 0 0 0 0 0 0 0 0 0 0 0 0 0 0 0 0 0 0 0 0 0 0 0 0 0 0 0 0 0 0 0 0 0 0 0 0 0 0
0 0 0 0 0 0 0 0 0 0 0 0 0 0 0 0 0 0 0 0 0 0 0 0 0 0 0 0 0 0 0 0 0 0 0 0 0 0 0 0 0 0 0 0 0 0 0 0 0
0 0 0 0 0 0 0 0 0 0 0 0 0 0 0 0 0 0 0 0 0 0 0 0 0 0 0 0 0 0 0 0 0 0 0 0 0 0 0 0 0 0 0 0 0 0 0 0 0
0 0 0 0 0 0 0 0 0 0 0 0 0 0 0 0 0 0 0 0 0 0 0 0 0 0 0 0 0 0 0 0 0 0 0 0 0 0 0 0 0 0 0 0 0 0 0 0 0
0 0 0 0 0 0 0 0 0 0 0 0 0 0 0 0 0 0 0 0 0 0 0 0 0 0 0 0 0 0 0 0 0 0 0 0 0 0 0 0 0 0 0 0 0 0 0 0 0
0 0 0 0 0 0 0 0 0 0 0 0 0 0 0 0 0 0 0 0 0 0 0 0 0 0 0 0 0 0 0 0 0 0 0 0 0 0 0 0 0 0 0 0 0 0 0 0 0
0 0 0 0 0 0 0 0 0 0 0 0 0 0 0 0 0 0 0 0 0 0 0 0 0 0 0 0 0 0 0 0 0 0 0 0 0 0 0 0 0 0 0 0 0 0 0 0 0
0 0 0 0 0 0 0 0 0 0 0 0 0 0 0 0 0 0 0 0 0 0 0 0 0 0 0 0 0 0 0 0 0 0 0 0 0 0 0 0 0 0 0 0 0 0 0 0 0
0 0 0 0 0 0 0 0 0 0 0 0 0 0 0 0 0 0 0 0 0 0 0 -0 -0 -0 0 0 0 0 0 0 0 0 0 0 0 0 0 0 0 0 0 0 0 0 0 0 0
0 0 0 0 0 0 0 0 0 0 0 0 0 0 0 0 0 0 0 0 0 0 0 -0 -0 -0 0 0 0 0 0 0 0 0 0 0 0 0 0 0 0 0 0 0 0 0 0 0 0
0 0 0 0 0 0 0 0 0 0 0 0 0 0 0 0 0 0 0 0 0 0 0 -0 -0 -0 0 0 0 0 0 0 0 0 0 0 0 0 0 0 0 0 0 0 0 0 0 0 0
0 0 0 0 0 0 0 0 0 0 0 0 0 0 0 0 0 0 0 0 0 0 0 0 0 0 0 0 0 0 0 0 0 0 0 0 0 0 0 0 0 0 0 0 0 0 0 0 0
0 0 0 0 0 0 0 0 0 0 0 0 0 0 0 0 0 0 0 0 0 0 0 0 0 0 0 0 0 0 0 0 0 0 0 0 0 0 0 0 0 0 0 0 0 0 0 0 0
0 0 0 0 0 0 0 0 0 0 0 0 0 0 0 0 0 0 0 0 0 0 0 0 0 0 0 0 0 0 0 0 0 0 0 0 0 0 0 0 0 0 0 0 0 0 0 0 0
0 0 0 0 0 0 0 0 0 0 0 0 0 0 0 0 0 0 0 0 0 0 0 0 0 0 0 0 0 0 0 0 0 0 0 0 0 0 0 0 0 0 0 0 0 0 0 0 0
0 0 0 0 0 0 0 0 0 0 0 0 0 0 0 0 0 0 0 0 0 0 0 0 0 0 0 0 0 0 0 0 0 0 0 0 0 0 0 0 0 0 0 0 0 0 0 0 0
0 0 0 0 0 0 0 0 0 0 0 0 0 0 0 0 0 0 0 -0 0 0 0 0 0 0 0 0 0 0 0 0 0 0 0 0 0 0 0 0 0 0 0 0 0 0 0 0 0
0 0 0 0 0 0 0 0 0 0 0 0 0 0 0 0 0 0 0 0 0 0 0 0 0 0 0 0 0 0 0 0 0 0 0 0 0 0 0 0 0 0 0 0 0 0 0 0 0
0 0 0 0 0 0 0 0 0 0 0 0 0 0 0 0 0 0 0 0 0 0 0 0 0 0 0 0 0 0 0 0 0 0 0 0 0 0 0 0 0 0 0 0 0 0 0 0 0
0 0 0 0 0 0 0 0 0 0 0 0 0 0 0 0 0 0 0 0 0 0 0 0 0 0 0 0 0 0 0 0 0 0 0 0 0 0 0 0 0 0 0 0 0 0 0 0 0
0 0 0 0 0 0 0 0 0 0 0 0 0 0 0 0 0 0 0 0 0 0 0 0 0 0 0 0 0 0 0 0 0 0 0 0 0 0 0 0 0 0 0 0 0 0 0 0 0
Wind_Speed
14 11 6 2 3 4 6 5 2 1 2 4 5 5 5 6 6 6 3 4 6 6 8 8 7 8 9 9 9 9 10 9 9 9 10 10 10 10 11 11 11 11 11 12 12 12 12 12 12
11 9 4 3 4 5 5 5 2 3 4 2 3 3 4 6 6 6 3 4 6 7 8 7 8 9 9 10 10 9 10 9 9 9 9 9 10 10 10 10 10 10 11 11 11 11 11 11 11
11 7 3 3 5 5 3 1 4 6 4 2 2 5 4 4 5 4 4 4 5 7 7 7 8 9 9 10 10 10 9 9 9 9 9 9 9 9 9 9 9 10 10 10 10 10 10 11 11
5 3 4 5 7 5 3 2 4 4 3 2 2 5 5 5 4 5 5 4 6 7 7 7 9 9 9 10 10 10 9 9 9 9 9 9 9 9 9 9 9 9 10 10 10 10 10 10 10
3 3 5 6 8 4 1 2 2 1 2 1 1 3 4 4 7 6 5 5 6 6 7 7 8 9 9 9 9 10 9 9 9 9 9 9 9 9 10 9 9 9 9 10 10 10 10 10 9
3 3 5 7 6 4 1 1 1 0 1 1 0 2 4 5 6 5 5 5 6 6 6 6 8 9 8 8 9 9 9 9 8 9 9 9 9 9 9 9 9 9 9 9 9 9 9 9 8
3 4 6 7 4 3 1 2 2 1 1 1 2 2 5 5 5 4 5 5 6 6 6 5 5 6 8 8 8 8 8 8 8 8 9 8 8 8 8 8 8 8 9 9 9 8 8 8 8
3 3 5 5 5 3 2 3 3 4 3 4 5 1 4 6 5 4 5 5 5 6 5 4 4 4 5 5 7 7 7 7 8 7 7 7 7 8 7 7 7 8 8 8 8 8 8 7 7
3 3 4 4 2 1 2 2 2 3 2 2 3 4 6 9 6 5 4 4 4 5 4 4 3 4 3 3 5 5 5 5 5 5 5 4 3 4 4 6 7 7 7 7 7 7 6 6 5
2 3 4 4 4 3 3 2 1 0 0 0 3 5 7 7 5 4 4 4 4 4 3 3 3 3 3 3 3 2 2 2 2 2 2 2 2 3 4 5 7 7 7 7 6 5 4 3 2
1 3 3 5 6 4 3 3 2 2 2 1 2 4 5 5 5 4 3 4 3 4 3 3 2 3 3 2 2 1 1 1 2 3 3 2 2 2 3 2 3 3 4 3 3 3 2 2 2
2 3 4 4 4 4 3 3 3 3 3 2 1 3 3 3 4 4 4 4 4 4 3 3 3 3 3 2 2 2 1 1 2 2 3 2 2 2 2 2 2 2 2 2 2 2 3 3 3
3 3 3 3 3 3 4 4 3 4 1 1 1 2 3 3 2 2 3 3 3 4 3 3 3 3 2 2 1 2 2 2 2 2 2 3 2 2 2 2 2 2 2 2 2 2 2 3 2
2 3 4 4 4 3 4 5 3 5 2 2 2 2 3 3 3 2 3 3 3 3 4 3 3 3 3 2 1 2 2 2 2 2 2 3 2 2 2 2 2 2 2 2 2 2 2 2 2
2 3 5 5 5 3 3 5 6 6 4 4 3 3 3 3 3 3 3 3 3 3 3 3 3 3 3 2 1 2 2 2 2 2 2 3 3 2 2 2 2 2 2 2 2 2 2 2 2
4 4 4 3 3 2 2 6 3 3 3 4 3 3 3 3 3 3 2 3 3 4 4 3 2 3 3 2 2 1 2 2 2 2 2 2 2 2 2 2 2 2 2 1 1 1 1 2 1
3 4 5 3 2 1 4 5 2 2 3 4 3 3 2 3 2 3 3 3 3 4 4 4 3 3 3 3 2 2 2 2 2 2 2 2 2 2 2 2 1 2 2 1 1 1 1 1 1
3 5 5 4 1 3 5 7 4 3 4 4 4 3 3 3 2 2 3 4 3 3 4 4 3 3 3 3 2 2 1 1 1 1 2 2 2 2 2 2 2 2 1 1 1 1 1 1 1
5 6 6 5 3 3 7 9 6 4 4 5 4 4 3 3 2 2 3 4 4 3 4 4 4 3 3 2 2 2 1 1 1 1 2 2 2 2 2 1 1 1 1 1 1 1 1 1 1
6 6 6 4 3 4 7 10 7 5 5 5 4 4 3 2 2 2 2 3 3 3 4 4 4 4 3 2 2 2 2 1 1 1 1 1 2 2 2 2 1 1 1 1 1 1 1 0 1
5 5 5 6 6 4 6 8 5 3 4 4 4 3 2 3 3 3 2 2 3 3 3 3 3 3 3 2 2 2 2 1 1 1 1 1 2 2 2 2 2 1 1 1 1 1 2 1 0
5 4 5 5 5 4 2 5 4 3 3 4 4 3 2 2 3 2 2 2 2 2 2 3 3 3 3 3 2 3 2 2 2 2 2 2 2 2 2 2 2 2 1 1 1 1 1 1 1
3 5 6 5 5 5 5 5 6 4 4 5 3 2 2 2 3 2 2 1 2 2 2 2 3 3 3 2 2 2 2 1 1 2 2 2 2 2 2 2 2 2 1 2 1 1 1 1 1
2 4 5 3 2 5 6 5 5 3 5 3 3 2 2 2 2 2 2 2 2 2 2 2 3 2 3 3 2 2 2 2 2 2 2 2 1 2 2 2 2 2 2 2 2 2 1 1 1
1 1 2 1 2 5 3 4 5 2 0 2 3 3 3 3 3 2 2 1 1 2 2 2 3 2 2 3 3 3 2 2 3 2 2 1 1 1 2 2 2 2 2 2 2 2 2 2 2
3 2 2 3 3 3 2 5 3 1 2 3 3 3 3 2 2 2 1 1 1 2 2 2 2 3 3 3 3 2 2 1 1 2 2 2 2 2 2 3 3 3 2 2 2 2 3 2 2
1 3 2 2 3 4 5 4 1 2 2 1 2 2 1 1 1 1 1 1 1 1 1 1 2 2 2 2 3 2 2 2 1 1 1 1 1 1 2 2 3 3 2 2 2 2 2 2 2
2 1 0 2 3 5 5 4 3 2 1 0 1 1 1 1 1 1 1 1 1 1 1 1 1 1 2 2 2 2 2 2 1 1 1 1 1 1 1 2 2 2 2 2 2 2 2 2 2
2 2 3 3 3 3 4 3 2 2 2 1 1 2 2 2 1 0 0 1 1 1 0 0 1 1 1 1 1 1 2 2 2 2 2 2 1 2 2 2 2 2 2 2 2 2 2 2 3
2 3 4 3 4 4 4 5 2 2 2 2 1 1 1 2 2 1 0 1 1 0 0 0 0 0 1 1 1 1 2 2 2 2 2 2 2 2 2 2 3 3 3 3 3 3 2 3 3
Wind_Direction
306 284 263 256 248 232 239 245 258 101 61 38 21 25 48 34 35 95 134 82 92 101 108 100 85 86 86 87 86 86 84 82 80 78 79 78 75 73 72 69 68 68 70 72 73 74 72 70 69
297 293 277 242 241 236 233 226 222 58 75 70 43 25 68 69 72 95 102 76 95 99 103 101 89 87 86 85 85 85 83 82 81 80 79 80 77 75 73 71 70 70 71 73 74 75 74 72 70
280 274 261 239 237 243 240 87 96 85 78 67 67 35 44 61 79 86 92 99 95 95 98 100 93 91 89 86 84 83 83 81 81 81 79 78 78 76 74 73 73 73 74 75 78 77 76 74 70
284 252 245 246 247 256 269 57 86 112 92 52 101 91 76 41 57 89 98 102 96 92 92 99 95 93 88 86 84 81 81 81 79 77 77 78 77 75 72 73 74 76 78 78 77 77 77 75 72
261 253 237 238 247 257 286 63 84 126 133 137 140 106 90 79 87 96 102 101 97 94 94 102 97 94 88 86 84 81 79 80 81 80 78 78 78 75 71 72 73 76 79 79 77 77 76 74 69
268 252 244 236 235 228 221 88 88 12 113 118 98 115 102 108 101 105 105 101 96 95 97 104 99 92 87 85 83 82 79 77 78 80 78 76 75 78 75 74 74 74 77 80 79 77 76 74 69
280 271 261 261 259 252 246 59 25 350 32 35 337 112 121 113 105 109 106 102 99 97 98 102 108 98 87 83 81 81 83 79 77 78 77 75 72 73 77 76 79 78 78 78 78 77 76 75 71
305 289 266 261 254 267 33 53 18 9 7 15 4 57 125 121 108 102 99 98 98 99 101 101 101 101 102 96 85 82 82 81 79 78 74 74 73 69 69 74 78 82 81 79 76 75 73 75 70
281 261 264 277 282 350 37 41 24 8 24 27 41 48 101 119 122 121 111 100 96 92 96 101 102 99 101 106 100 92 86 83 83 82 77 77 79 77 69 71 76 81 84 83 76 77 73 76 68
239 251 274 332 353 8 359 355 12 89 269 34 95 95 112 126 138 143 137 128 118 113 104 98 99 105 103 106 111 110 103 97 83 81 77 71 69 77 82 79 78 75 75 75 70 67 68 67 65
262 270 312 341 354 4 346 326 314 265 259 240 155 137 135 144 147 155 154 140 140 128 114 107 100 99 102 106 106 91 85 80 68 58 52 62 75 81 84 87 83 78 73 63 60 61 41 40 44
261 302 314 320 343 340 321 309 302 293 293 355 101 138 149 164 169 167 159 150 140 131 125 118 109 105 102 101 104 106 94 83 74 62 54 55 55 54 58 66 69 67 62 49 47 56 50 42 38
251 271 303 315 331 318 303 285 291 271 292 4 103 160 180 178 180 154 149 147 137 132 127 115 111 113 110 105 100 98 95 95 92 82 63 63 67 61 57 57 55 62 58 45 37 44 51 47 35
329 318 295 286 277 275 269 269 265 256 221 211 204 194 182 174 174 171 159 150 136 128 131 129 119 111 111 106 105 103 97 87 84 81 76 73 77 74 66 63 57 54 50 39 40 39 47 51 40
293 285 274 256 244 238 269 259 233 231 218 214 214 200 187 186 173 180 175 154 142 138 126 129 132 116 114 113 108 96 101 105 90 82 76 73 74 78 80 77 67 58 52 43 43 38 42 47 37
248 248 253 231 223 217 236 259 228 190 202 217 223 219 198 188 167 163 163 141 140 141 138 139 129 125 124 122 113 97 95 103 106 102 91 81 78 79 83 87 78 61 60 50 58 63 57 47 32
234 256 265 270 204 218 232 263 234 197 212 231 234 229 214 199 176 164 169 149 145 146 144 144 143 143 134 123 115 106 99 100 109 108 101 92 89 83 90 93 88 75 73 60 52 60 63 54 23
279 282 285 277 296 283 260 265 257 240 227 237 235 232 222 210 195 175 173 155 146 145 146 146 149 142 136 126 117 111 99 95 98 113 115 110 96 89 88 92 82 81 88 67 63 68 61 72 27
299 288 288 294 319 292 270 271 264 246 239 243 235 227 216 204 169 165 160 146 146 149 149 151 154 149 139 135 140 140 142 133 115 119 122 120 114 108 107 100 105 100 114 116 95 85 87 52 33
283 281 289 302 317 305 289 279 269 243 237 239 235 231 203 182 160 159 147 139 141 145 152 154 156 153 149 153 154 144 134 134 129 112 107 126 130 132 128 129 139 138 130 121 114 104 97 70 69
281 277 288 299 311 284 288 289 251 235 211 217 232 232 198 182 172 169 155 145 146 145 150 156 156 153 152 147 127 115 103 100 109 141 167 169 146 137 134 146 148 154 149 160 162 145 131 171 264
283 309 300 294 294 280 273 290 267 223 218 223 221 214 191 172 152 151 153 169 160 149 132 141 147 147 151 151 158 167 175 184 196 182 180 178 172 155 154 153 155 157 157 153 176 153 146 149 199
294 319 299 281 272 284 253 254 266 209 218 219 205 178 141 131 128 130 124 153 136 128 128 132 141 149 152 152 166 170 175 180 162 165 171 183 188 176 171 168 166 168 168 163 159 162 156 169 175
323 310 290 271 258 261 235 232 269 221 219 193 158 133 116 96 111 110 93 85 103 120 127 138 144 152 157 167 182 177 183 170 154 168 182 192 188 192 187 182 173 175 176 184 185 182 180 187 187
281 312 318 287 240 247 228 232 251 252 173 142 134 129 105 87 89 95 96 98 109 136 143 152 158 161 171 179 188 184 188 182 184 182 188 197 196 207 206 195 190 191 192 191 184 187 196 196 197
234 232 224 261 273 287 261 238 253 70 49 77 97 83 76 79 93 104 108 135 166 150 143 157 169 173 172 184 188 174 181 184 196 198 190 197 204 210 204 205 198 196 195 199 194 197 202 195 201
233 232 281 298 288 278 250 240 254 87 68 79 101 100 119 109 108 126 125 133 136 138 149 175 179 178 178 184 182 182 181 187 194 209 207 205 207 204 201 208 202 195 198 200 193 204 208 198 201
293 291 230 213 266 271 264 240 233 186 205 38 56 57 96 93 70 104 146 158 137 138 166 175 166 185 183 176 189 190 178 182 190 208 228 236 237 212 209 215 211 197 202 204 200 207 214 210 210
199 224 226 237 244 255 283 274 350 138 129 88 49 49 29 15 12 350 143 115 106 119 152 157 172 175 173 180 180 184 176 184 189 207 220 226 232 215 218 218 209 199 203 204 196 201 203 221 229
240 226 199 210 250 241 264 272 354 64 89 76 31 29 14 355 334 316 29 105 97 79 232 187 198 180 175 169 174 189 185 176 185 209 226 224 228 222 220 217 211 207 202 195 192 206 212 217 227